Wind_Speed
30 34 33 33 32 29 26 23 22 20 20 19 18 19 19 21 25 25 24 24 25 24 23 23 23 22 20 19 17 18 20 20 20 19 19 20 21 23 20 16 14 13 13 13 12 11 9 7 6 6 5 5 6 6 6 7 8 8 7 6 5 4 4 4 6 8 11 12 13 13 13 13 13 12 12 11 10 9 9 9 8 8 8 9 9
30 35 35 34 33 30 27 25 24 22 22 22 20 22 23 24 27 27 26 26 26 25 24 24 24 23 22 20 18 16 16 18 19 18 19 20 22 24 22 19 17 15 16 15 15 13 11 9 7 7 7 7 7 7 8 8 9 9 9 7 6 5 5 5 6 8 10 12 13 14 14 14 13 12 11 11 10 10 10 10 10 10 10 9 9
30 36 37 35 33 30 28 26 25 24 25 24 22 23 26 27 29 29 28 27 27 25 24 24 25 25 23 20 18 16 14 17 18 17 19 19 20 23 22 21 20 19 18 17 16 15 13 10 9 8 8 8 9 9 10 10 11 11 11 9 7 6 6 6 7 9 11 12 13 14 15 14 13 12 11 11 11 11 11 11 11 11 10 9 9
27 35 37 36 34 31 29 28 26 25 27 26 24 24 27 29 31 30 30 28 27 26 24 23 24 24 23 21 19 18 16 16 14 14 19 21 17 18 20 21 22 20 19 18 17 17 15 12 10 9 10 10 10 11 12 12 12 13 13 11 9 8 7 7 8 10 12 13 14 15 16 14 13 12 12 12 12 11 11 11 11 11 10 9 8
23 34 39 37 35 32 31 29 28 27 28 28 26 25 27 30 31 31 30 29 28 26 26 24 23 23 23 21 18 17 17 16 14 11 16 22 21 17 18 21 23 22 21 20 20 20 18 15 12 10 11 11 11 12 13 14 14 14 14 13 11 9 8 8 9 11 13 14 16 16 16 15 13 13 12 12 12 11 11 11 11 10 10 9 7
21 32 40 40 37 34 32 31 28 28 30 29 27 26 27 29 31 31 30 29 27 26 26 25 24 23 22 20 16 14 15 16 17 14 14 21 24 22 19 20 24 24 23 22 22 22 20 17 14 12 11 12 12 13 14 15 15 15 16 15 13 11 10 9 10 12 15 17 18 18 17 15 14 13 13 12 12 12 11 11 10 9 8 7 6
20 29 39 42 41 37 34 32 29 29 30 31 29 28 28 28 30 31 31 30 27 26 26 25 24 24 23 21 18 16 15 14 15 16 17 20 22 21 20 21 24 26 26 24 23 23 23 20 17 15 13 12 13 14 15 15 15 16 17 17 15 13 12 11 12 14 16 18 20 20 19 17 15 14 13 13 13 12 11 10 10 9 7 6 5
21 26 34 41 43 41 37 34 32 30 31 32 32 31 31 31 30 30 31 32 30 28 27 27 26 25 24 23 21 19 17 14 13 14 18 21 21 18 17 20 24 28 28 27 25 24 24 22 19 17 14 13 14 15 16 16 16 17 18 18 17 15 14 13 14 15 17 20 21 21 20 18 16 15 13 13 13 12 11 10 10 9 8 7 5
25 25 30 37 43 44 41 38 34 32 32 33 33 33 33 34 34 32 31 32 32 31 31 29 28 27 25 23 22 22 21 19 16 15 17 22 24 20 17 19 23 28 31 29 27 27 26 24 22 19 16 14 14 15 16 16 17 17 18 20 19 17 16 15 15 17 19 21 22 22 21 18 17 15 14 14 13 12 11 11 10 9 8 7 6
26 26 29 33 41 45 43 42 38 35 34 33 33 33 34 35 36 35 32 32 32 33 32 30 28 26 25 24 23 23 23 23 21 21 22 25 27 25 21 21 23 27 32 31 29 29 28 27 24 21 18 17 16 15 16 17 17 18 19 21 20 19 18 17 17 19 21 23 23 23 22 20 18 16 15 15 13 12 12 11 10 8 7 6 4
23 26 29 31 37 43 43 44 43 39 36 34 33 33 34 36 37 37 35 34 33 33 33 30 27 25 24 23 22 22 23 25 24 24 25 25 26 27 26 25 24 26 32 33 31 30 29 28 26 23 20 19 18 16 16 17 18 19 20 21 22 21 20 19 19 21 24 25 25 24 23 21 19 17 16 16 14 13 13 12 10 8 6 3 1
25 26 30 31 33 39 43 46 45 41 38 36 34 34 34 35 37 38 38 36 34 34 33 30 26 23 22 21 21 21 21 23 24 25 25 25 25 27 27 27 26 26 32 35 33 31 28 28 27 25 22 21 19 18 18 19 19 20 21 22 23 22 21 21 21 23 26 26 26 26 24 22 20 19 17 16 15 14 14 13 10 7 3 1 1
32 34 35 33 32 34 39 45 47 45 41 38 37 35 35 36 37 38 39 38 35 34 34 32 29 24 22 22 21 22 21 21 22 23 24 25 25 26 27 28 26 26 31 36 34 32 29 27 26 25 23 22 20 19 20 20 20 20 22 23 24 23 22 22 23 26 27 28 28 27 25 23 21 20 19 17 16 15 15 13 9 5 3 2 2
38 41 41 37 34 32 36 41 46 49 46 43 41 38 37 38 38 38 40 40 37 35 35 33 31 29 27 26 24 24 24 23 23 23 23 23 23 25 26 27 26 26 30 36 35 33 29 26 25 24 23 22 21 19 20 20 20 21 23 24 24 24 23 23 25 27 28 29 28 27 26 24 22 21 20 18 17 16 14 12 8 6 5 4 2
43 46 45 41 36 33 35 39 44 48 49 47 46 43 40 41 41 40 40 42 40 37 36 34 33 32 31 30 26 24 25 26 25 24 23 21 22 23 25 26 26 26 30 36 36 32 28 26 25 25 24 22 21 20 20 21 21 21 23 25 25 24 24 24 27 29 30 30 29 28 26 25 23 22 21 20 18 16 14 11 9 7 6 5 3
43 44 43 40 37 35 36 39 41 43 45 46 48 47 45 44 44 43 42 43 42 39 37 36 35 34 33 31 28 27 27 25 23 23 23 23 23 22 23 25 27 28 31 35 34 31 27 26 25 25 24 22 21 21 21 21 21 21 23 25 25 24 24 26 29 30 31 31 30 29 27 25 24 23 22 21 19 17 15 12 10 9 8 6 4
38 40 40 39 40 38 38 41 41 40 41 42 46 48 49 48 47 45 44 44 43 41 39 37 36 35 34 32 30 29 28 24 23 24 26 25 23 21 22 25 27 29 32 34 33 30 28 26 26 26 25 23 22 22 22 22 21 21 23 25 25 25 25 28 31 31 32 32 31 29 27 25 24 24 23 22 20 18 16 14 13 11 9 7 5
36 39 42 41 41 40 41 43 41 40 39 37 41 46 49 51 50 48 46 46 45 42 39 36 34 33 34 32 30 29 28 26 26 26 27 26 23 22 23 24 27 29 32 33 32 30 28 27 26 26 25 24 23 23 22 21 21 21 22 24 25 25 26 29 31 32 32 32 31 30 28 26 25 25 24 23 22 20 18 16 15 14 11 9 7
39 40 42 43 43 42 42 43 43 43 42 38 39 46 50 52 51 48 46 46 47 43 37 33 32 33 33 31 30 29 28 28 27 26 26 26 24 23 23 24 26 29 31 31 30 29 28 27 26 25 24 24 23 22 21 21 20 21 22 24 25 25 26 28 30 31 32 32 32 30 28 27 27 26 26 25 23 22 20 18 18 17 14 12 10
41 41 43 43 45 46 45 45 44 45 47 45 43 47 51 53 53 49 46 46 47 43 36 33 34 34 32 30 29 29 30 30 27 24 23 22 21 22 24 25 26 29 30 30 29 29 28 26 25 24 23 23 22 21 20 20 20 21 22 24 25 25 26 28 30 31 32 32 31 30 29 28 28 28 27 26 25 24 22 20 20 20 18 16 14
41 39 42 43 45 47 49 48 46 46 49 48 46 47 50 53 55 51 46 45 46 44 39 36 36 34 32 31 30 29 30 32 29 24 22 20 20 21 23 26 28 29 29 29 29 28 27 26 24 23 22 21 20 19 19 19 20 21 23 24 25 25 26 28 29 30 31 31 31 30 29 29 29 28 28 27 27 25 24 22 22 22 20 18 17
40 38 40 42 45 47 49 50 48 47 48 49 47 49 50 52 55 53 49 46 46 46 41 37 36 35 33 32 31 31 31 32 30 25 22 21 20 21 22 27 29 29 29 29 29 28 27 26 25 23 21 19 18 18 19 20 21 22 24 25 26 25 26 27 28 30 30 31 30 30 30 30 29 29 29 29 28 27 25 24 24 24 22 20 19
39 39 40 42 45 47 48 51 51 49 49 50 50 52 52 51 53 54 52 48 47 47 42 38 37 35 34 33 32 32 32 31 30 28 25 23 21 21 23 27 30 30 29 29 29 29 28 26 24 22 20 18 17 18 19 20 21 23 24 25 26 26 26 28 29 29 30 30 31 31 31 30 29 30 30 30 29 27 26 26 26 26 24 22 21
38 39 39 40 44 48 50 52 53 52 51 50 52 54 53 52 54 54 53 51 50 48 45 41 38 35 35 35 34 33 33 33 31 30 27 25 23 22 23 27 30 30 29 30 30 28 27 25 23 21 18 17 18 18 17 19 21 22 24 25 26 26 27 28 29 29 30 30 31 31 31 30 30 29 30 30 29 27 27 27 27 27 26 24 23
45 41 39 40 45 50 53 55 55 54 53 52 53 54 53 54 57 56 54 54 54 51 49 45 38 36 36 37 36 36 36 34 33 32 30 27 26 24 24 26 29 30 30 31 30 28 26 24 22 20 19 18 18 17 17 18 20 21 23 25 26 26 27 28 29 29 29 29 30 31 31 31 30 29 29 29 28 27 27 27 28 28 27 26 25
50 46 42 43 47 50 53 57 59 57 54 53 53 53 54 56 59 58 57 57 56 52 51 47 40 38 39 39 40 40 38 36 33 32 31 29 28 25 24 25 27 30 31 31 29 28 26 24 23 21 20 19 17 17 18 18 19 20 22 25 26 27 28 28 28 28 29 29 30 31 31 30 30 29 29 29 28 27 27 28 28 28 28 27 26
49 47 44 43 47 50 53 57 59 59 58 57 54 52 55 59 60 59 57 57 56 53 52 50 43 40 41 41 41 40 39 37 35 34 32 30 29 26 25 25 26 28 30 30 29 28 27 25 24 23 21 19 18 18 18 17 18 19 22 25 26 28 28 28 29 29 29 30 31 31 31 31 30 29 29 30 29 28 28 28 28 28 28 27 27
49 46 44 43 43 47 54 57 57 59 62 62 58 53 55 61 62 58 54 56 57 54 52 50 46 43 42 41 39 37 38 39 38 37 34 32 30 28 27 26 25 26 28 30 29 27 26 26 26 24 22 21 20 19 18 17 17 19 21 24 26 27 29 29 30 30 31 32 32 32 31 31 30 30 29 29 29 28 28 28 28 28 29 29 28
51 49 47 47 45 44 50 55 56 58 61 63 60 54 54 61 63 60 56 57 57 53 51 50 47 45 43 42 41 38 37 40 40 39 36 33 31 29 28 26 23 24 27 30 30 28 27 27 26 25 24 23 23 21 20 18 17 18 20 23 26 28 29 31 31 32 32 34 34 33 31 30 30 30 29 28 28 28 28 28 29 30 30 30 29
50 50 49 50 49 48 50 54 56 58 60 62 63 57 54 59 63 62 59 59 58 55 52 50 47 44 43 45 44 39 38 39 39 40 38 34 32 30 28 25 23 24 27 29 30 29 28 28 27 26 25 25 25 23 22 20 19 19 19 21 24 26 29 32 33 34 34 34 34 33 32 31 31 30 30 30 29 29 29 29 30 31 31 30 29
49 51 51 51 51 54 56 56 57 59 60 62 64 61 55 57 61 63 61 60 60 59 56 52 48 45 46 48 46 42 40 39 39 40 39 35 32 29 28 26 25 25 26 28 30 29 29 29 28 28 28 28 27 26 24 22 21 21 20 20 21 24 27 31 33 34 35 35 34 34 33 33 32 32 32 32 32 31 31 30 30 31 30 29 28
52 52 54 55 53 55 59 59 56 60 63 63 65 64 59 58 61 65 65 62 62 64 61 55 50 49 51 53 50 46 42 40 40 40 39 37 33 30 29 27 26 25 25 28 31 29 28 29 29 30 30 30 29 28 26 25 24 24 23 22 22 23 26 29 31 33 34 34 34 35 35 34 33 33 33 33 33 32 31 30 29 30 29 28 27
52 52 54 55 54 53 57 59 57 59 63 65 66 66 63 60 61 66 68 65 64 67 66 61 54 52 55 56 52 48 45 43 41 40 40 39 36 33 31 28 26 26 26 31 33 30 28 30 30 31 32 32 31 30 29 28 27 27 26 24 24 25 26 27 29 31 33 33 33 34 34 34 33 32 32 32 32 31 30 29 29 29 28 27 27
52 53 54 55 55 52 53 58 59 60 63 65 66 66 64 63 63 66 69 67 66 69 68 63 58 56 57 57 53 50 48 43 39 38 39 39 36 35 32 29 28 28 29 33 33 29 29 31 31 31 33 33 33 33 32 31 30 30 29 26 26 27 27 27 28 29 30 31 32 32 32 32 31 31 31 31 31 30 29 28 28 28 28 27 26
52 53 55 55 55 53 53 57 58 59 64 66 67 67 65 64 65 67 69 68 67 69 68 63 59 58 59 58 54 51 49 45 38 36 38 38 36 36 34 32 30 29 30 31 30 28 29 30 31 32 33 34 34 34 34 34 34 33 32 30 29 29 28 28 28 28 30 31 30 30 30 30 29 29 29 29 29 29 27 27 27 27 26 26 25
52 53 56 56 56 54 53 56 57 57 63 67 68 68 66 64 63 66 70 69 67 67 66 63 61 60 60 59 56 53 51 47 40 36 37 37 36 36 36 35 33 32 32 31 30 30 29 30 31 32 34 36 36 36 36 37 37 37 35 33 32 32 31 30 29 29 30 31 30 29 29 29 29 28 28 28 28 28 27 26 27 26 25 26 26
52 53 55 56 56 54 53 55 56 56 61 66 68 69 69 67 64 64 68 70 69 67 65 63 63 62 61 60 57 54 51 48 43 39 39 38 35 35 35 35 34 34 33 32 31 30 29 29 31 32 33 36 37 38 39 39 39 39 38 37 36 35 35 33 32 31 31 31 30 30 30 29 29 29 29 29 29 28 28 28 28 27 26 25 25
50 52 54 55 55 54 54 56 57 56 59 65 68 68 70 70 67 66 68 69 70 69 66 65 65 63 62 61 59 55 53 51 48 44 42 39 35 34 35 35 34 34 34 33 32 30 29 28 29 31 33 34 36 38 40 41 42 42 41 41 39 38 38 37 36 34 32 32 32 32 31 30 30 30 31 32 31 30 30 30 30 30 28 26 26
49 51 54 55 55 54 55 57 59 58 60 65 69 70 70 72 71 68 68 69 69 69 67 67 68 65 63 61 60 57 55 55 53 49 45 41 37 36 37 36 36 35 33 34 34 32 30 27 28 30 32 33 35 37 39 40 42 43 43 43 43 42 41 40 38 36 35 34 35 35 35 33 32 31 31 32 32 32 32 32 33 33 31 29 27
48 51 54 56 56 56 56 57 59 61 61 65 70 72 72 73 73 71 70 70 70 70 69 67 67 67 65 63 62 62 60 58 57 54 50 46 43 42 41 40 39 36 33 33 34 33 29 27 27 28 30 32 35 36 37 39 40 41 43 45 45 44 42 41 40 39 38 37 36 37 37 36 35 33 32 32 33 34 35 35 34 33 32 31 31
47 51 55 57 57 57 57 58 59 60 61 63 69 73 74 74 75 74 72 72 72 72 72 71 69 70 70 68 66 66 64 62 60 57 54 52 50 47 47 46 43 38 34 33 34 33 30 28 28 28 29 31 33 34 36 38 38 38 40 43 45 44 43 43 42 41 39 38 38 38 38 37 37 36 35 34 34 33 33 33 32 31 31 33 34
49 53 56 57 58 57 58 60 60 59 60 62 66 72 74 74 76 79 78 75 73 72 72 72 72 72 73 72 69 67 66 65 62 61 59 58 55 52 51 50 48 43 37 34 35 35 33 31 31 30 31 31 31 33 36 37 38 37 38 40 43 44 45 46 44 42 40 40 40 40 39 38 39 39 38 38 37 36 35 35 35 34 35 36 36
51 54 56 58 58 57 57 59 60 59 60 60 62 67 73 73 75 78 80 79 76 71 69 69 70 72 72 71 70 68 68 66 65 64 63 61 58 54 53 54 53 48 39 35 37 38 36 36 35 33 32 31 30 32 36 39 40 39 38 40 42 44 46 46 45 44 42 41 40 40 39 39 40 40 40 40 40 40 40 40 40 39 38 38 38
53 55 57 58 58 57 56 57 60 60 60 59 58 61 68 72 74 75 78 79 77 73 70 67 67 69 69 68 69 71 71 68 65 65 65 63 59 56 55 57 57 52 43 38 39 40 39 40 40 37 35 34 32 32 35 39 43 43 41 41 42 43 43 44 44 45 44 43 42 40 40 40 40 40 41 42 43 42 43 44 44 42 41 41 41
55 56 57 58 57 56 55 56 59 60 61 61 59 58 62 66 71 74 75 75 74 73 70 67 65 66 67 67 68 72 74 71 67 65 66 63 60 58 58 58 57 54 47 42 42 43 42 44 44 41 38 37 37 36 36 38 42 45 45 44 43 42 42 42 43 44 44 44 43 42 41 41 42 42 43 44 45 46 46 46 47 46 45 44 45
55 56 57 57 56 55 55 56 58 59 60 61 60 59 60 60 63 68 72 73 74 72 69 67 65 65 67 68 68 70 72 71 69 67 66 64 61 60 60 57 56 54 50 45 44 45 45 45 46 43 41 40 39 37 37 38 41 44 47 48 47 45 44 44 44 44 44 44 43 43 42 42 42 43 43 44 46 47 48 48 49 49 49 48 48
56 56 57 56 55 54 54 55 56 57 58 60 59 60 61 60 58 61 66 71 73 72 70 69 67 65 66 69 70 70 69 69 68 67 67 65 62 62 61 58 56 55 51 47 46 47 47 46 46 45 44 43 41 38 37 39 41 43 47 49 49 48 47 47 47 46 46 45 44 44 43 42 42 41 41 42 43 45 46 48 48 49 50 50 49
57 57 57 56 55 54 53 53 54 54 55 56 56 58 61 62 61 59 60 65 69 70 70 71 70 68 65 66 68 70 70 69 66 65 66 65 63 63 62 60 58 56 53 51 50 49 47 46 46 47 46 46 44 41 40 41 42 44 47 49 50 51 51 51 51 51 49 48 46 45 45 43 42 41 41 40 41 43 44 46 48 48 49 49 48
59 58 57 56 54 53 52 52 52 52 52 51 52 54 57 61 62 59 58 62 66 67 66 68 69 67 64 63 65 67 69 69 66 64 64 64 64 63 62 62 60 58 56 55 53 51 49 48 47 49 49 49 47 45 44 44 44 45 47 49 52 54 56 56 56 56 55 53 51 49 48 46 44 43 41 40 41 40 40 41 43 43 42 42 42
59 58 57 55 54 52 51 50 50 50 49 48 48 48 51 56 59 59 59 62 66 67 66 65 66 65 63 63 63 65 68 69 66 63 63 64 65 63 62 62 61 59 59 58 55 52 52 52 51 51 51 51 49 48 47 48 47 46 48 51 54 57 59 60 60 60 58 57 55 53 51 49 47 44 41 40 40 38 36 35 34 34 34 34 34
59 58 58 56 54 52 50 49 48 48 46 45 45 45 46 49 53 57 61 63 65 68 68 67 67 65 64 64 64 65 69 68 65 63 64 65 66 65 64 63 62 60 60 59 58 56 55 54 53 52 50 49 49 50 51 51 50 49 49 52 55 56 58 61 63 63 61 59 57 56 54 52 50 46 44 43 41 39 36 34 33 33 33 33 34
Wind_Direction
224 220 219 218 216 214 214 212 213 220 218 212 202 192 188 188 189 187 182 178 176 174 171 171 172 176 178 175 179 185 188 191 189 182 178 181 186 190 189 188 193 204 212 217 219 219 220 223 226 233 240 242 241 237 230 227 225 221 214 202 192 183 169 165 165 170 170 164 160 156 148 141 136 135 136 136 133 127 119 111 106 100 96 90 86
223 218 217 216 214 213 212 209 210 214 213 210 200 188 183 182 185 186 183 181 179 178 175 176 179 184 185 183 185 189 190 189 189 189 186 182 186 191 193 197 205 211 214 216 217 218 219 221 227 233 238 241 240 239 235 233 232 229 224 216 204 193 181 175 172 174 174 167 162 157 149 143 141 142 141 137 131 126 120 112 107 102 99 96 91
226 220 217 215 214 213 212 209 209 210 209 208 201 190 183 179 181 183 184 185 185 184 183 183 185 187 187 185 185 185 184 185 188 195 196 191 190 194 198 204 210 215 218 220 219 219 219 220 226 233 237 239 239 239 236 235 234 232 229 223 214 204 191 183 178 177 177 171 165 160 153 149 149 148 144 137 131 126 121 114 110 107 104 102 98
229 223 219 216 215 213 212 211 209 208 206 206 203 195 189 183 180 181 184 186 189 190 188 189 189 188 185 183 182 181 182 187 191 195 200 202 199 198 203 208 211 214 218 224 224 220 219 220 223 231 237 238 238 238 236 234 234 232 229 225 219 211 202 192 182 179 179 174 169 164 158 156 156 153 146 139 133 129 123 119 116 114 111 109 105
236 224 219 217 216 214 213 211 209 207 205 205 205 200 197 192 185 184 185 187 191 193 193 195 196 193 188 184 182 182 186 193 198 197 198 203 205 208 213 215 215 215 216 222 227 223 219 219 223 230 237 238 238 239 236 234 234 232 230 226 222 214 208 201 186 181 181 176 171 168 164 163 163 157 150 143 138 134 129 126 124 122 119 117 113
243 226 220 218 217 216 215 212 209 208 205 205 207 206 204 200 195 191 191 192 194 196 200 203 204 202 198 193 190 192 193 196 202 203 196 200 209 220 229 228 223 220 216 218 225 225 218 216 221 227 233 237 237 238 236 234 234 234 231 227 224 218 212 205 191 183 183 179 173 171 169 169 168 161 154 148 145 141 136 133 127 121 116 113 113
247 229 221 218 217 217 217 215 212 210 208 206 208 210 211 207 202 199 199 199 200 201 205 207 207 206 205 202 203 207 207 205 208 209 205 205 213 224 234 236 230 225 221 217 221 227 221 214 218 223 228 234 236 236 235 232 234 235 232 227 224 220 215 209 195 186 185 182 175 173 173 174 173 166 160 156 153 150 145 137 127 117 111 110 109
249 235 224 219 217 218 218 218 216 214 211 208 209 212 214 214 210 205 204 205 206 206 208 208 208 209 209 209 212 217 220 221 221 219 217 217 218 224 237 242 236 228 223 219 219 225 223 216 216 219 222 230 233 234 232 230 233 235 233 227 224 222 218 211 198 188 187 184 179 177 177 178 177 171 166 164 161 157 150 141 131 125 120 117 112
247 236 226 221 219 219 219 220 219 219 216 213 213 214 214 215 215 212 207 205 207 208 209 210 210 213 215 216 219 221 226 232 234 233 233 230 225 227 242 253 245 231 223 220 218 222 222 218 217 217 218 223 230 234 231 229 231 235 233 226 223 223 220 213 201 191 188 187 182 181 181 182 181 177 173 170 167 162 155 149 143 141 136 127 115
244 234 227 221 218 219 221 221 221 222 221 219 219 219 215 214 215 213 209 207 208 209 210 211 211 214 216 218 221 222 224 229 234 238 242 241 234 233 242 253 254 238 223 219 219 220 222 220 217 216 217 221 229 235 233 230 231 235 233 225 222 223 221 215 203 193 190 189 186 185 185 185 185 183 181 176 171 167 164 162 161 158 151 135 111
247 234 228 223 219 220 223 224 222 222 223 222 223 223 218 215 215 214 212 210 212 213 214 215 214 216 216 219 223 222 221 223 227 234 239 240 237 238 241 249 258 244 223 217 219 221 222 221 217 216 219 223 229 234 234 234 234 237 234 225 221 222 221 215 204 194 192 190 189 188 188 188 189 189 187 181 175 172 173 175 172 167 160 147 98
252 244 234 225 223 224 225 224 222 222 224 223 222 224 222 218 218 218 216 215 214 215 217 218 218 218 217 221 227 226 222 222 224 230 234 233 234 238 241 248 257 247 224 216 217 219 220 220 218 219 222 224 227 231 234 236 238 241 237 226 220 221 220 214 203 195 192 192 191 191 191 191 192 192 190 184 179 178 178 178 177 176 184 183 94
255 255 248 235 228 225 225 226 223 222 224 224 223 225 226 224 223 222 220 219 218 217 219 221 222 221 220 221 228 230 227 226 228 231 232 231 232 234 239 246 254 247 226 215 215 217 218 218 219 220 223 225 227 231 234 237 240 244 239 226 221 221 220 213 202 194 193 193 193 193 194 194 194 193 191 187 184 182 181 183 187 191 187 157 104
256 257 256 251 239 226 224 226 226 226 226 227 228 227 228 229 228 226 224 222 222 220 221 223 224 225 226 224 226 231 232 232 232 232 233 236 237 236 237 243 249 246 227 215 215 217 217 219 220 222 225 225 229 235 239 239 240 245 239 226 220 221 218 210 199 194 193 194 195 196 197 197 195 193 192 190 188 188 190 194 198 192 175 165 161
252 252 253 253 245 231 225 225 226 228 229 230 232 231 230 231 232 230 227 225 225 225 224 224 224 226 229 227 226 230 233 233 233 237 241 243 243 240 238 239 243 241 226 215 214 216 216 219 220 223 226 228 232 241 246 244 242 245 238 225 220 220 216 206 196 193 194 195 197 198 199 199 197 195 194 193 193 196 201 204 200 192 185 182 174
251 250 247 247 244 235 227 224 226 229 230 232 234 235 233 232 233 232 230 228 228 227 226 225 225 227 228 228 228 230 235 235 233 237 242 241 241 241 240 240 240 236 223 214 213 214 216 220 222 223 226 230 236 244 249 247 243 244 237 225 221 220 213 201 194 193 195 196 198 199 201 201 199 198 198 198 199 204 208 207 202 198 192 180 172
254 248 244 244 242 236 227 225 229 231 232 235 237 237 235 234 234 233 231 231 229 227 226 225 225 225 228 231 232 234 240 240 233 232 235 240 245 244 241 238 235 229 219 212 211 213 217 222 223 223 225 231 238 244 247 245 241 240 233 224 221 219 210 199 194 194 196 197 199 200 202 202 202 202 203 203 206 209 211 209 205 201 193 189 200
253 247 243 241 237 234 230 227 230 232 231 235 240 239 237 235 235 233 232 231 229 227 225 224 223 224 229 234 237 239 240 240 237 236 238 246 250 245 239 235 230 223 216 211 212 215 219 222 223 223 226 232 239 244 245 242 237 234 228 222 220 217 207 198 195 196 197 198 200 201 203 203 204 205 207 209 212 214 214 212 209 205 202 210 231
250 246 241 236 232 232 232 229 228 230 230 234 241 241 238 236 235 233 231 230 228 227 225 223 223 226 229 234 238 239 238 238 241 243 245 250 252 244 237 230 225 220 215 213 215 219 221 222 222 224 228 233 238 241 242 238 232 227 223 219 218 215 206 200 198 198 199 200 201 203 204 205 206 208 210 213 216 217 218 217 213 211 215 228 245
248 244 240 235 232 231 230 230 228 229 232 236 241 241 236 235 234 233 231 229 228 226 223 221 223 226 227 231 236 238 237 237 241 244 246 250 250 243 234 226 221 218 215 215 217 220 222 223 224 227 231 235 237 238 238 234 226 221 218 216 216 213 206 202 201 201 201 202 203 204 205 207 209 211 213 216 218 219 221 221 218 218 225 237 253
250 246 240 235 232 230 229 230 230 229 231 236 239 238 234 231 232 234 233 229 227 224 219 218 222 224 224 227 231 235 236 236 239 240 242 248 251 247 236 224 220 220 218 217 217 219 221 222 225 228 232 236 236 235 233 229 221 215 214 214 214 212 207 205 205 204 203 203 204 206 207 209 212 214 217 219 220 221 223 223 222 224 231 242 257
250 249 243 234 230 229 227 229 230 228 231 237 240 236 232 229 230 234 236 232 227 223 220 219 222 224 226 227 228 231 233 235 236 237 239 245 248 246 238 226 222 224 222 220 219 219 220 222 225 228 232 234 233 232 229 224 216 211 211 211 212 211 208 207 207 206 205 205 207 208 209 212 215 218 220 222 222 223 225 226 225 227 234 245 258
248 246 241 235 232 230 229 229 229 230 233 238 240 235 229 227 229 232 235 234 229 226 225 224 225 228 230 230 230 232 233 233 234 236 238 242 242 240 238 231 225 225 226 225 223 222 222 224 225 228 230 230 230 230 226 221 214 210 209 210 212 212 209 209 209 208 208 208 209 210 212 215 218 221 223 224 224 226 228 229 227 229 237 247 260
253 246 237 236 237 235 233 232 231 233 234 236 237 233 225 223 227 229 233 234 231 227 227 227 227 231 232 232 233 234 234 233 233 236 239 242 242 237 235 232 227 226 227 228 228 228 227 227 228 228 228 228 228 229 227 220 214 210 210 211 213 214 213 211 211 211 212 212 212 213 215 219 222 224 225 226 227 230 232 231 230 232 239 249 261
259 254 245 242 241 239 236 234 234 234 234 233 234 231 224 222 226 228 229 231 230 227 227 229 230 231 233 234 235 234 233 232 232 235 239 243 245 239 233 233 230 227 227 229 231 232 230 229 229 229 228 226 226 227 226 221 215 211 211 213 214 216 217 216 215 215 216 216 216 217 220 222 225 227 227 228 231 234 234 234 234 237 243 252 262
258 258 256 249 241 238 235 234 234 234 233 232 232 230 225 223 225 224 224 228 229 226 226 231 232 230 232 234 235 235 235 234 231 233 238 243 246 242 235 235 233 230 230 230 231 231 231 230 230 229 227 224 223 224 224 221 217 213 213 214 215 217 219 220 220 220 220 220 220 221 223 226 228 230 231 232 234 236 236 238 240 243 249 256 263
256 256 258 251 240 237 236 234 233 234 234 231 230 228 224 221 221 221 222 226 228 225 225 229 232 230 231 233 234 233 234 235 232 233 238 242 246 244 239 237 235 233 233 233 232 230 230 230 231 230 225 222 221 221 222 221 218 216 215 216 217 218 220 221 222 223 224 224 224 225 226 229 231 233 234 236 238 240 241 243 246 250 254 260 266
256 254 253 249 241 238 238 237 234 232 233 231 227 224 221 220 220 220 221 224 225 223 222 226 229 228 229 232 232 229 232 234 234 234 238 242 245 244 242 239 236 235 235 234 233 231 229 229 230 228 223 220 219 219 221 220 217 218 219 220 220 220 221 222 223 224 225 226 227 228 230 232 234 236 238 240 242 244 245 248 251 255 258 263 267
250 250 251 249 244 239 238 239 234 228 229 231 226 221 219 220 220 220 220 220 221 220 219 222 226 228 230 232 231 228 231 234 235 235 238 241 243 243 242 240 236 236 236 234 233 231 229 228 228 226 221 219 219 218 219 219 218 221 224 225 225 224 224 225 225 225 225 227 229 230 233 235 238 240 242 243 244 246 248 251 254 258 262 265 269
243 245 248 246 244 241 237 237 233 225 224 228 227 222 220 221 220 219 218 217 217 217 216 220 224 227 231 234 233 230 230 234 236 236 238 239 240 241 241 238 235 235 235 234 232 229 228 226 226 225 223 220 221 221 220 221 223 226 228 230 229 227 228 227 227 227 227 228 230 231 235 238 240 242 243 244 246 248 250 254 257 261 264 267 270
246 246 246 244 244 242 239 237 233 227 223 224 225 224 221 220 219 218 217 215 214 214 215 218 222 225 229 235 236 232 230 232 235 235 236 237 237 239 240 237 234 233 233 234 232 227 226 226 225 226 225 224 224 224 224 225 229 232 232 232 232 232 232 229 227 228 229 229 231 233 236 239 241 242 244 246 249 251 253 256 259 261 264 267 269
255 252 248 246 245 242 240 240 235 229 223 221 223 224 221 220 218 217 217 215 211 212 214 216 219 222 227 232 234 233 231 230 231 231 231 233 235 238 239 236 233 230 230 236 237 230 227 227 226 226 227 227 227 228 228 230 234 237 236 234 233 235 236 234 230 230 231 231 232 234 237 239 241 243 245 249 251 253 255 257 258 259 261 264 266
257 252 249 247 244 241 239 238 235 230 223 218 219 222 222 221 218 216 216 214 210 211 213 215 217 220 225 230 231 232 232 229 226 226 227 230 233 237 239 235 231 228 225 231 236 234 232 231 229 229 229 228 229 230 231 234 236 239 240 237 235 236 236 235 234 233 234 234 235 237 238 240 243 244 246 249 251 252 254 256 258 258 259 262 265
255 250 247 245 243 241 237 233 231 228 223 217 216 218 221 221 218 216 215 212 208 209 212 216 218 219 223 227 229 231 234 232 227 224 225 229 232 236 237 232 228 227 226 229 233 233 235 236 234 233 233 231 230 232 233 236 239 241 242 241 241 240 236 235 234 234 235 235 236 237 239 241 244 245 246 248 250 251 253 255 257 258 259 260 262
254 249 246 244 242 240 235 232 230 227 221 218 216 216 218 219 218 217 214 210 207 209 213 216 217 219 221 224 227 231 234 235 232 227 227 231 233 234 234 231 229 229 232 235 235 231 233 237 238 238 238 236 234 233 235 237 239 242 243 243 244 243 240 237 235 234 235 236 236 237 238 240 242 244 246 247 249 252 254 257 260 263 264 265 269
252 247 244 242 240 238 234 231 230 227 221 218 216 214 215 216 216 216 214 210 208 210 214 215 215 216 219 222 225 229 232 234 234 231 231 233 233 232 232 232 233 234 235 236 237 234 233 236 239 240 240 240 238 236 237 238 239 241 243 243 244 245 244 241 238 235 235 236 237 237 237 239 241 244 245 247 249 252 256 260 263 264 266 270 276
250 245 242 240 238 236 233 230 229 227 222 219 218 215 214 215 215 214 213 212 210 211 215 216 213 214 218 221 223 228 231 232 231 231 233 232 231 229 230 232 234 236 236 236 238 240 240 237 240 243 243 242 241 239 239 240 241 242 243 243 244 245 245 244 241 237 235 235 234 233 235 239 241 244 246 249 251 254 257 260 260 260 263 267 271
247 242 238 236 234 232 230 228 227 226 223 220 220 218 216 216 216 215 214 214 213 214 215 216 213 212 216 220 223 226 230 230 230 231 232 231 227 226 227 230 233 235 238 241 245 248 247 240 237 242 245 245 244 243 241 242 242 243 243 244 245 245 246 245 244 240 236 234 232 232 235 240 243 245 247 249 253 257 259 259 260 262 264 265 269
244 238 233 231 229 227 227 226 224 223 222 221 220 220 219 217 216 214 213 214 215 215 214 214 213 212 215 219 222 226 229 229 229 230 230 228 226 227 229 230 234 238 241 246 249 249 247 240 234 238 244 246 245 245 244 244 244 243 244 244 244 245 246 247 247 244 239 236 233 233 236 241 244 246 248 252 256 259 260 261 263 265 264 265 270
241 235 229 226 225 224 223 223 222 221 221 221 220 220 221 220 217 215 213 214 215 214 212 213 214 213 215 218 221 225 228 228 228 230 229 227 227 230 233 235 239 240 242 245 246 245 243 239 235 236 242 246 247 247 247 247 246 244 242 241 241 242 245 247 248 246 243 240 237 236 237 240 244 246 250 255 259 260 260 261 261 262 263 265 268
236 230 227 224 223 222 220 219 219 220 220 219 219 219 220 221 219 217 215 214 214 215 214 215 217 216 216 218 220 224 227 227 228 229 228 227 228 230 233 238 240 239 240 244 245 242 240 240 242 245 247 249 252 251 249 249 247 243 240 239 240 240 242 244 246 247 246 244 242 240 240 242 245 247 250 253 255 258 259 258 257 261 265 266 267
231 227 225 224 223 222 220 218 218 219 220 219 219 218 218 220 220 219 216 213 212 214 216 217 219 219 219 219 219 222 225 226 228 229 227 226 228 229 230 236 238 236 237 242 242 238 237 239 244 248 248 250 253 253 250 248 246 243 241 240 240 240 240 242 244 246 246 245 245 245 245 246 247 249 252 253 253 255 257 257 260 264 266 267 268
228 225 223 224 224 223 221 218 217 218 219 220 220 219 217 219 220 219 218 214 212 214 218 219 219 220 221 221 222 223 225 226 229 230 227 226 228 229 229 233 236 235 235 239 239 235 234 237 242 246 247 250 254 254 249 246 246 247 246 244 242 241 240 241 242 243 245 245 246 247 249 250 251 251 252 253 254 256 256 258 261 263 265 266 267
227 223 222 223 224 224 222 219 218 218 219 220 221 220 219 220 221 220 218 215 214 215 217 218 219 220 223 225 227 227 227 229 231 230 227 227 229 229 229 232 236 237 235 235 237 235 233 235 239 242 244 249 255 256 252 247 246 247 247 245 244 242 241 241 241 241 243 245 247 248 249 250 251 253 253 252 253 255 256 258 261 262 263 264 264
225 222 221 222 222 223 223 221 219 219 219 220 220 220 221 222 223 223 219 215 213 214 215 215 218 222 225 226 228 230 230 232 233 231 228 229 229 228 228 231 236 238 235 233 235 236 234 233 236 239 241 247 253 257 256 251 247 246 247 247 247 243 239 238 239 240 242 244 246 248 249 250 251 254 255 254 255 256 257 259 261 262 262 263 263
224 222 220 220 221 222 224 223 222 221 221 221 221 221 223 223 222 222 221 216 214 214 215 216 219 222 225 227 227 229 231 233 234 231 228 228 227 227 227 230 234 237 235 233 234 235 235 234 235 237 240 245 250 255 257 254 249 246 246 248 248 243 237 237 238 239 241 243 245 246 248 250 252 253 255 256 257 259 260 261 263 263 263 263 264
224 220 219 218 219 222 223 224 224 224 224 224 224 225 227 226 223 220 219 218 217 218 220 221 221 222 225 226 226 227 230 232 232 229 227 226 226 226 227 229 232 235 236 234 234 236 236 236 236 237 239 243 247 253 258 257 252 247 244 247 248 244 240 239 239 240 241 242 245 247 248 250 252 254 257 259 260 261 262 263 264 264 264 264 265
224 220 218 218 220 221 223 225 227 228 229 229 229 230 229 229 227 223 219 218 218 219 221 223 223 224 225 225 225 226 229 229 227 226 225 225 225 225 226 227 229 233 235 235 235 236 236 236 236 237 239 242 245 251 258 258 255 250 246 245 246 245 244 243 242 242 242 244 246 249 251 252 254 256 259 261 262 263 264 264 264 264 265 266 266
225 221 219 219 219 220 222 226 229 231 233 233 232 231 230 229 228 225 222 219 217 216 218 220 222 223 224 224 225 227 227 226 224 223 223 223 224 225 225 226 227 229 233 235 235 235 234 234 235 236 239 242 244 249 256 258 257 253 249 245 245 245 245 246 245 245 245 247 248 250 252 254 255 257 259 261 262 263 265 266 265 264 264 264 265
228 224 220 219 218 220 222 226 230 233 235 235 232 229 228 229 227 226 225 221 217 216 217 219 221 222 222 223 226 227 226 223 222 221 221 222 223 224 225 227 228 228 232 235 235 234 233 233 236 238 240 242 245 249 255 257 257 255 252 247 246 245 245 245 247 248 249 249 250 252 254 255 257 259 261 261 261 261 263 265 265 264 264 264 263
231 226 222 219 217 218 221 225 229 232 234 234 231 226 226 228 227 225 224 223 219 217 219 221 221 220 221 223 226 226 224 222 222 222 221 222 225 225 226 229 230 230 232 235 236 234 234 235 238 239 240 243 247 251 255 256 255 255 253 249 247 247 245 245 247 249 251 251 251 252 253 254 256 258 260 261 261 260 260 261 263 266 268 268 267
Height
10921 10923 10924 10925 10926 10927 10928 10928 10930 10932 10934 10935 10935 10935 10936 10938 10941 10942 10943 10943 10944 10944 10944 10944 10944 10944 10944 10946 10947 10949 10950 10951 10951 10951 10951 10952 10953 10954 10956 10957 10959 10961 10963 10964 10966 10966 10967 10967 10966 10966 10967 10967 10966 10966 10966 10967 10967 10967 10967 10967 10967 10968 10968 10968 10969 10970 10971 10973 10974 10974 10975 10976 10976 10976 10976 10977 10977 10978 10978 10979 10979 10980 10980 10980 10980
10919 10921 10922 10923 10924 10925 10925 10925 10927 10929 10931 10933 10933 10933 10934 10936 10938 10940 10942 10943 10943 10944 10944 10943 10943 10943 10943 10944 10945 10947 10949 10950 10950 10951 10951 10951 10952 10953 10954 10955 10958 10960 10961 10962 10964 10965 10965 10965 10965 10966 10966 10966 10966 10966 10966 10966 10966 10966 10967 10967 10967 10968 10968 10968 10969 10970 10971 10973 10974 10975 10975 10976 10976 10977 10977 10977 10978 10978 10979 10980 10980 10981 10981 10981 10981
10919 10921 10922 10923 10924 10925 10925 10925 10925 10926 10928 10931 10932 10932 10933 10935 10936 10938 10940 10942 10943 10943 10944 10943 10943 10942 10942 10943 10944 10946 10947 10948 10949 10950 10952 10952 10952 10953 10953 10954 10956 10958 10959 10961 10962 10963 10964 10964 10964 10965 10965 10965 10965 10965 10965 10965 10965 10966 10966 10967 10967 10968 10968 10969 10969 10970 10971 10973 10974 10975 10976 10976 10977 10977 10977 10977 10978 10979 10979 10980 10981 10981 10982 10982 10982
10921 10922 10923 10924 10925 10925 10925 10924 10924 10925 10926 10929 10931 10931 10932 10933 10934 10936 10937 10939 10941 10943 10943 10943 10942 10942 10941 10941 10943 10944 10945 10946 10948 10949 10950 10952 10952 10953 10953 10953 10955 10957 10958 10959 10960 10961 10962 10963 10963 10963 10964 10964 10964 10964 10964 10964 10965 10965 10966 10966 10967 10967 10968 10969 10969 10970 10971 10973 10974 10975 10976 10977 10977 10977 10977 10977 10978 10979 10980 10980 10981 10982 10982 10983 10983
10922 10922 10922 10924 10925 10925 10924 10923 10923 10923 10925 10927 10929 10930 10931 10933 10933 10934 10935 10937 10939 10941 10942 10943 10942 10941 10940 10940 10941 10943 10944 10945 10946 10947 10948 10950 10952 10952 10952 10953 10954 10955 10956 10957 10958 10959 10960 10961 10962 10962 10963 10963 10963 10963 10963 10963 10964 10964 10965 10966 10966 10967 10968 10969 10969 10970 10971 10972 10974 10975 10976 10977 10977 10977 10977 10978 10978 10979 10980 10981 10981 10982 10983 10983 10984
10921 10921 10921 10922 10923 10924 10924 10923 10923 10922 10924 10926 10928 10929 10930 10932 10932 10933 10934 10935 10937 10938 10940 10941 10941 10941 10940 10940 10940 10941 10942 10943 10944 10945 10946 10948 10950 10951 10951 10951 10952 10953 10954 10955 10955 10956 10957 10959 10960 10961 10961 10962 10962 10962 10962 10963 10963 10964 10964 10965 10966 10966 10967 10968 10969 10970 10971 10972 10973 10974 10976 10977 10977 10978 10978 10978 10979 10979 10980 10981 10982 10982 10983 10984 10984
10918 10918 10918 10919 10921 10922 10923 10923 10922 10922 10922 10923 10925 10927 10928 10930 10931 10932 10933 10934 10935 10936 10937 10938 10939 10939 10939 10939 10939 10940 10941 10942 10943 10944 10945 10946 10948 10949 10949 10949 10949 10950 10951 10952 10953 10954 10955 10956 10958 10959 10960 10961 10961 10961 10962 10962 10962 10963 10964 10965 10965 10966 10967 10967 10968 10969 10971 10972 10973 10974 10975 10976 10977 10978 10978 10979 10979 10979 10980 10981 10982 10983 10983 10984 10984
10914 10914 10915 10916 10917 10919 10920 10921 10921 10921 10921 10921 10922 10924 10925 10927 10928 10929 10931 10932 10933 10934 10935 10936 10937 10937 10937 10937 10938 10939 10940 10940 10941 10942 10943 10944 10945 10946 10946 10947 10947 10947 10948 10950 10951 10952 10953 10954 10955 10957 10958 10959 10960 10960 10960 10961 10961 10962 10963 10964 10965 10965 10966 10967 10967 10968 10970 10971 10972 10973 10974 10976 10977 10978 10978 10979 10979 10980 10980 10981 10982 10983 10983 10984 10984
10912 10911 10911 10912 10914 10915 10916 10918 10918 10919 10920 10920 10921 10921 10922 10924 10925 10926 10928 10929 10931 10932 10933 10934 10935 10935 10936 10936 10936 10937 10938 10939 10939 10940 10941 10942 10943 10943 10943 10944 10944 10944 10945 10947 10948 10949 10950 10951 10952 10954 10956 10957 10958 10959 10959 10960 10961 10961 10962 10963 10964 10965 10965 10966 10967 10968 10969 10970 10972 10973 10974 10975 10976 10977 10978 10979 10980 10980 10981 10982 10982 10983 10983 10984 10984
10908 10909 10909 10908 10910 10911 10912 10914 10916 10917 10918 10919 10920 10920 10920 10921 10922 10923 10924 10926 10927 10929 10930 10932 10933 10934 10935 10935 10935 10936 10937 10938 10938 10938 10938 10939 10940 10940 10940 10941 10941 10941 10942 10944 10945 10946 10947 10948 10950 10951 10953 10955 10956 10957 10958 10959 10960 10960 10961 10962 10963 10964 10964 10965 10966 10967 10968 10970 10971 10972 10973 10974 10976 10977 10978 10979 10980 10980 10981 10982 10983 10983 10983 10984 10984
10904 10906 10906 10905 10905 10907 10909 10910 10912 10914 10916 10917 10918 10919 10919 10919 10919 10920 10921 10922 10924 10926 10927 10929 10931 10932 10933 10934 10934 10935 10936 10936 10935 10934 10935 10936 10937 10938 10938 10938 10938 10938 10939 10941 10943 10944 10945 10946 10947 10949 10950 10952 10954 10956 10957 10958 10958 10959 10960 10960 10961 10962 10963 10964 10965 10966 10967 10969 10970 10971 10973 10974 10975 10977 10978 10978 10979 10980 10981 10982 10983 10983 10984 10984 10984
10899 10900 10901 10901 10901 10902 10904 10905 10908 10911 10912 10914 10916 10916 10918 10918 10918 10918 10919 10920 10921 10922 10924 10925 10927 10929 10931 10932 10933 10934 10934 10934 10933 10931 10932 10933 10935 10935 10935 10935 10935 10936 10937 10938 10940 10942 10943 10944 10945 10946 10948 10950 10952 10954 10955 10956 10957 10958 10959 10959 10960 10961 10962 10963 10964 10965 10966 10968 10970 10971 10972 10973 10975 10976 10977 10978 10979 10980 10981 10982 10983 10983 10984 10984 10984
10894 10893 10895 10898 10898 10898 10899 10901 10905 10907 10908 10909 10911 10912 10914 10916 10917 10917 10917 10918 10919 10919 10920 10921 10923 10926 10928 10930 10930 10931 10931 10932 10931 10930 10931 10931 10932 10933 10933 10933 10933 10933 10935 10936 10938 10940 10941 10942 10943 10944 10946 10948 10950 10952 10953 10954 10955 10957 10957 10958 10959 10960 10961 10962 10963 10964 10966 10968 10969 10971 10972 10973 10974 10976 10977 10978 10979 10980 10981 10982 10983 10983 10983 10983 10983
10891 10890 10892 10895 10897 10896 10897 10899 10901 10902 10903 10905 10906 10907 10910 10912 10914 10915 10916 10916 10916 10917 10917 10918 10920 10922 10924 10926 10928 10928 10929 10930 10930 10930 10930 10930 10930 10931 10931 10930 10930 10931 10932 10934 10936 10937 10939 10940 10941 10943 10944 10946 10948 10950 10951 10952 10954 10955 10956 10957 10958 10959 10959 10960 10962 10964 10965 10967 10969 10971 10972 10973 10974 10975 10977 10978 10979 10980 10981 10982 10982 10983 10983 10983 10983
10889 10890 10892 10894 10896 10896 10895 10896 10897 10898 10899 10900 10901 10902 10905 10907 10909 10911 10912 10913 10913 10914 10914 10916 10917 10919 10921 10923 10926 10927 10927 10927 10928 10929 10930 10929 10929 10928 10928 10928 10928 10928 10930 10931 10933 10935 10936 10938 10939 10941 10942 10944 10946 10948 10949 10951 10952 10953 10954 10955 10957 10958 10958 10959 10961 10963 10964 10966 10968 10970 10972 10973 10975 10976 10977 10978 10979 10980 10980 10981 10981 10982 10982 10982 10982
10885 10887 10890 10892 10894 10894 10894 10894 10894 10894 10895 10896 10897 10898 10900 10903 10904 10905 10907 10909 10910 10911 10911 10912 10914 10916 10918 10920 10923 10923 10923 10925 10927 10928 10928 10927 10926 10925 10925 10925 10925 10926 10927 10929 10931 10932 10934 10935 10937 10939 10940 10942 10944 10946 10947 10949 10950 10951 10952 10954 10956 10957 10957 10958 10959 10961 10964 10966 10968 10970 10972 10973 10975 10976 10977 10978 10979 10979 10980 10980 10981 10981 10981 10981 10981
10880 10882 10884 10886 10888 10890 10891 10891 10891 10892 10892 10893 10893 10895 10897 10899 10900 10902 10903 10904 10905 10906 10907 10908 10911 10913 10915 10917 10919 10920 10921 10923 10924 10925 10924 10924 10924 10923 10922 10922 10922 10923 10924 10926 10928 10930 10931 10933 10934 10936 10938 10940 10942 10943 10945 10946 10947 10949 10950 10953 10954 10955 10956 10957 10959 10960 10962 10965 10967 10969 10971 10973 10975 10976 10977 10978 10979 10979 10979 10980 10980 10980 10980 10980 10980
10874 10876 10877 10878 10880 10882 10885 10887 10888 10888 10888 10890 10891 10891 10893 10895 10897 10900 10900 10900 10901 10902 10903 10905 10907 10910 10911 10914 10916 10917 10919 10920 10920 10921 10921 10922 10922 10921 10920 10920 10920 10921 10922 10924 10926 10927 10929 10931 10932 10934 10936 10938 10939 10941 10942 10944 10945 10946 10948 10951 10953 10954 10955 10957 10958 10960 10962 10964 10966 10968 10970 10972 10974 10976 10977 10978 10978 10979 10979 10979 10979 10979 10979 10979 10979
10869 10869 10869 10871 10873 10875 10878 10880 10883 10884 10884 10886 10888 10887 10889 10891 10894 10897 10897 10897 10898 10898 10900 10902 10904 10906 10907 10910 10912 10913 10915 10916 10917 10918 10919 10920 10920 10919 10919 10918 10919 10920 10921 10923 10924 10926 10927 10929 10931 10932 10934 10936 10937 10938 10940 10941 10942 10944 10946 10949 10951 10952 10954 10956 10958 10959 10961 10963 10965 10967 10969 10971 10973 10974 10976 10977 10977 10978 10978 10978 10978 10978 10978 10978 10978
10863 10864 10864 10866 10867 10870 10873 10874 10877 10879 10879 10881 10883 10882 10884 10887 10890 10892 10893 10894 10895 10896 10898 10899 10900 10901 10904 10907 10908 10909 10911 10912 10914 10915 10916 10918 10918 10918 10917 10918 10918 10918 10919 10921 10923 10924 10926 10928 10929 10931 10932 10933 10935 10936 10937 10939 10940 10942 10944 10947 10949 10951 10952 10954 10956 10958 10960 10962 10964 10966 10968 10970 10971 10973 10974 10975 10976 10977 10977 10977 10977 10977 10977 10977 10977
10857 10859 10860 10862 10864 10865 10867 10869 10871 10874 10874 10875 10877 10878 10879 10882 10885 10887 10889 10890 10892 10893 10893 10893 10894 10897 10900 10902 10903 10905 10907 10909 10910 10912 10913 10915 10916 10916 10916 10917 10916 10917 10918 10920 10921 10923 10925 10926 10927 10929 10930 10931 10933 10934 10935 10936 10938 10940 10942 10945 10947 10949 10951 10953 10955 10957 10959 10961 10963 10965 10967 10969 10970 10971 10973 10974 10975 10975 10976 10976 10976 10976 10976 10976 10976
10852 10854 10855 10857 10859 10859 10861 10864 10866 10869 10870 10870 10872 10872 10873 10877 10880 10882 10884 10887 10888 10887 10887 10887 10889 10892 10895 10897 10898 10901 10903 10905 10907 10908 10910 10912 10913 10914 10915 10915 10915 10916 10917 10918 10920 10921 10922 10923 10925 10926 10928 10929 10931 10932 10933 10934 10936 10938 10940 10943 10945 10947 10950 10952 10954 10956 10958 10960 10962 10964 10966 10967 10969 10970 10971 10972 10973 10974 10974 10975 10975 10975 10975 10975 10975
10847 10848 10848 10850 10853 10854 10856 10858 10860 10863 10865 10865 10865 10865 10866 10871 10875 10877 10879 10882 10884 10883 10883 10883 10885 10888 10890 10891 10893 10896 10899 10902 10903 10904 10906 10908 10910 10911 10912 10913 10914 10915 10916 10917 10918 10918 10919 10921 10922 10924 10925 10927 10929 10930 10931 10932 10934 10936 10939 10941 10944 10946 10948 10950 10953 10955 10957 10959 10961 10962 10964 10966 10967 10969 10970 10971 10971 10972 10973 10973 10973 10973 10974 10974 10974
10839 10841 10842 10844 10846 10847 10849 10851 10854 10856 10857 10857 10857 10856 10860 10864 10867 10871 10873 10875 10878 10879 10878 10878 10881 10884 10885 10887 10889 10892 10895 10897 10900 10901 10902 10904 10906 10908 10909 10910 10912 10914 10915 10915 10916 10916 10917 10918 10920 10921 10923 10925 10926 10927 10929 10931 10933 10935 10937 10940 10942 10944 10947 10949 10951 10954 10956 10958 10960 10962 10963 10965 10966 10967 10968 10969 10970 10971 10971 10971 10972 10972 10972 10972 10972
10830 10833 10837 10839 10839 10839 10841 10843 10845 10846 10848 10849 10849 10850 10855 10857 10859 10864 10867 10868 10869 10872 10872 10873 10877 10880 10881 10883 10885 10887 10890 10892 10895 10897 10898 10901 10902 10904 10906 10907 10909 10911 10913 10913 10914 10915 10915 10917 10918 10919 10920 10922 10923 10925 10927 10929 10931 10933 10936 10938 10940 10943 10945 10947 10950 10952 10954 10957 10959 10961 10962 10963 10964 10965 10966 10968 10968 10969 10969 10970 10970 10970 10970 10971 10971
10822 10824 10829 10832 10831 10831 10833 10833 10834 10837 10840 10842 10843 10846 10850 10852 10852 10856 10859 10860 10862 10866 10868 10869 10873 10875 10876 10879 10880 10882 10885 10888 10891 10893 10895 10897 10899 10901 10903 10904 10906 10909 10910 10910 10912 10912 10914 10915 10916 10917 10918 10919 10921 10923 10924 10926 10929 10931 10934 10936 10938 10940 10943 10945 10948 10950 10953 10955 10957 10959 10960 10962 10963 10964 10965 10966 10967 10967 10968 10968 10969 10969 10969 10969 10969
10815 10815 10818 10820 10823 10824 10824 10823 10826 10829 10832 10834 10836 10840 10843 10844 10844 10846 10851 10854 10856 10860 10863 10864 10868 10871 10872 10874 10875 10879 10882 10884 10887 10889 10891 10893 10896 10899 10900 10901 10903 10905 10907 10908 10909 10910 10912 10913 10914 10915 10916 10918 10919 10921 10922 10924 10926 10929 10932 10934 10936 10938 10941 10943 10946 10948 10950 10952 10954 10956 10958 10960 10961 10962 10963 10964 10965 10966 10966 10967 10967 10967 10968 10968 10968
10808 10807 10808 10809 10812 10815 10815 10815 10819 10822 10823 10824 10828 10831 10833 10835 10837 10840 10846 10849 10850 10854 10856 10859 10863 10866 10868 10870 10871 10875 10877 10879 10882 10885 10888 10890 10893 10895 10897 10898 10900 10902 10904 10905 10906 10908 10909 10911 10911 10913 10914 10915 10917 10919 10920 10922 10925 10927 10929 10931 10934 10936 10939 10941 10943 10945 10947 10949 10951 10953 10955 10957 10959 10960 10962 10963 10964 10965 10965 10965 10965 10966 10965 10965 10965
10799 10797 10798 10799 10802 10806 10807 10807 10809 10813 10815 10815 10818 10822 10824 10826 10830 10834 10839 10842 10844 10847 10851 10854 10857 10860 10863 10865 10867 10870 10872 10874 10877 10880 10884 10887 10889 10892 10893 10895 10897 10898 10899 10901 10903 10905 10906 10907 10909 10910 10911 10913 10914 10916 10918 10920 10922 10924 10926 10929 10931 10934 10936 10939 10940 10942 10944 10945 10948 10950 10953 10955 10956 10958 10960 10961 10962 10962 10963 10963 10963 10963 10963 10963 10963
10789 10788 10789 10790 10792 10795 10796 10796 10798 10802 10807 10808 10809 10813 10817 10819 10823 10828 10832 10836 10840 10842 10846 10850 10853 10856 10858 10860 10863 10867 10868 10870 10873 10875 10879 10883 10886 10888 10890 10892 10893 10894 10895 10897 10899 10901 10902 10904 10905 10906 10908 10910 10912 10914 10916 10918 10920 10922 10924 10926 10928 10931 10933 10935 10937 10938 10940 10942 10944 10947 10950 10952 10954 10955 10957 10958 10959 10959 10960 10961 10961 10960 10960 10960 10960
10780 10780 10780 10781 10783 10784 10783 10784 10788 10792 10797 10801 10803 10807 10811 10814 10817 10822 10826 10831 10835 10837 10840 10845 10849 10853 10855 10857 10860 10863 10865 10867 10870 10872 10876 10879 10882 10885 10887 10889 10890 10891 10892 10893 10894 10896 10898 10899 10901 10903 10905 10907 10909 10911 10913 10916 10917 10919 10921 10924 10926 10928 10930 10931 10933 10935 10937 10939 10942 10944 10946 10948 10950 10952 10953 10954 10955 10956 10957 10957 10957 10957 10957 10957 10957
10770 10771 10771 10771 10773 10774 10773 10774 10780 10785 10789 10794 10797 10801 10806 10809 10812 10816 10820 10825 10829 10832 10836 10841 10845 10849 10851 10853 10855 10858 10861 10864 10867 10869 10872 10875 10878 10881 10883 10885 10887 10888 10889 10889 10889 10892 10895 10896 10898 10900 10902 10904 10906 10909 10911 10913 10914 10916 10918 10921 10923 10925 10926 10928 10931 10932 10934 10936 10938 10940 10942 10944 10946 10948 10949 10950 10952 10952 10953 10954 10954 10954 10953 10954 10953
10760 10761 10761 10760 10762 10764 10765 10767 10772 10777 10781 10786 10790 10794 10799 10803 10807 10811 10815 10819 10824 10827 10832 10835 10839 10843 10846 10848 10851 10853 10856 10860 10863 10865 10868 10871 10874 10876 10879 10882 10883 10885 10885 10884 10886 10890 10893 10893 10895 10897 10899 10901 10903 10906 10908 10910 10911 10913 10915 10917 10920 10922 10923 10925 10927 10929 10931 10933 10935 10937 10938 10940 10942 10944 10945 10947 10948 10949 10949 10950 10950 10950 10950 10950 10950
10749 10751 10751 10751 10752 10755 10757 10759 10763 10769 10775 10780 10783 10787 10791 10795 10800 10804 10808 10813 10818 10822 10826 10829 10833 10838 10841 10844 10846 10848 10850 10855 10859 10861 10863 10866 10869 10872 10875 10878 10879 10881 10881 10880 10884 10889 10891 10891 10893 10895 10897 10899 10901 10903 10905 10907 10909 10910 10911 10914 10916 10918 10920 10922 10924 10926 10928 10930 10931 10933 10935 10937 10938 10940 10942 10943 10944 10945 10946 10946 10946 10947 10947 10947 10947
10738 10741 10742 10742 10743 10746 10748 10750 10755 10761 10767 10772 10776 10780 10783 10787 10792 10797 10802 10807 10812 10816 10821 10824 10828 10833 10836 10839 10842 10844 10846 10849 10853 10856 10858 10860 10864 10867 10871 10873 10875 10877 10877 10878 10882 10886 10887 10888 10890 10892 10894 10896 10899 10901 10903 10904 10906 10907 10908 10911 10913 10914 10916 10918 10921 10923 10924 10925 10927 10929 10931 10933 10935 10936 10938 10940 10941 10942 10943 10943 10943 10943 10943 10943 10944
10727 10730 10732 10733 10735 10737 10739 10742 10747 10753 10758 10763 10767 10772 10776 10781 10787 10792 10797 10801 10806 10811 10815 10819 10823 10828 10831 10834 10837 10839 10842 10845 10848 10851 10854 10856 10860 10863 10866 10869 10871 10873 10874 10875 10877 10880 10883 10885 10886 10888 10891 10893 10895 10898 10899 10901 10903 10904 10906 10908 10910 10911 10913 10915 10917 10919 10920 10922 10924 10926 10928 10930 10931 10933 10934 10936 10937 10938 10939 10940 10940 10940 10940 10940 10941
10717 10720 10723 10725 10727 10729 10731 10735 10739 10744 10749 10753 10758 10763 10768 10774 10781 10787 10791 10796 10801 10806 10810 10814 10819 10823 10826 10829 10832 10835 10838 10842 10845 10848 10850 10853 10856 10859 10862 10865 10867 10868 10870 10871 10873 10876 10879 10881 10883 10885 10887 10889 10892 10894 10895 10897 10899 10901 10903 10904 10906 10908 10909 10911 10913 10915 10916 10919 10921 10923 10925 10926 10927 10928 10930 10931 10933 10934 10935 10936 10937 10937 10937 10937 10938
10708 10711 10714 10716 10719 10721 10724 10728 10732 10736 10740 10744 10750 10755 10761 10767 10774 10780 10785 10790 10795 10800 10805 10809 10814 10819 10822 10824 10827 10831 10835 10839 10841 10844 10847 10851 10854 10856 10859 10861 10863 10865 10867 10868 10870 10873 10875 10878 10880 10881 10883 10885 10887 10889 10891 10892 10894 10897 10899 10900 10902 10903 10905 10907 10909 10911 10913 10915 10917 10919 10921 10922 10923 10924 10926 10928 10929 10930 10932 10932 10933 10933 10934 10934 10935
10699 10702 10705 10708 10711 10714 10717 10721 10725 10728 10732 10737 10742 10747 10754 10760 10766 10772 10778 10784 10789 10795 10799 10803 10809 10814 10818 10821 10823 10827 10831 10834 10837 10841 10844 10848 10851 10853 10855 10857 10859 10861 10864 10866 10867 10869 10871 10874 10876 10877 10879 10881 10883 10884 10886 10888 10889 10892 10894 10896 10897 10898 10901 10903 10906 10908 10909 10911 10913 10915 10917 10919 10920 10921 10922 10924 10925 10926 10928 10929 10929 10930 10930 10931 10932
10692 10695 10697 10700 10703 10707 10711 10714 10718 10722 10725 10729 10734 10740 10746 10752 10759 10765 10772 10778 10783 10788 10793 10798 10803 10809 10814 10817 10820 10822 10826 10829 10833 10837 10841 10844 10847 10849 10851 10853 10855 10858 10861 10863 10863 10865 10867 10870 10872 10874 10876 10877 10878 10880 10882 10883 10885 10887 10889 10890 10891 10894 10897 10899 10901 10903 10905 10907 10909 10911 10913 10914 10915 10917 10918 10919 10920 10922 10923 10925 10925 10926 10927 10928 10928
10685 10687 10689 10692 10696 10701 10705 10708 10711 10715 10719 10722 10727 10733 10738 10744 10751 10758 10764 10770 10776 10782 10787 10792 10797 10803 10808 10812 10815 10818 10821 10825 10829 10833 10837 10840 10843 10845 10847 10848 10850 10854 10858 10860 10861 10862 10865 10867 10868 10870 10872 10873 10874 10876 10878 10880 10881 10883 10885 10885 10887 10890 10893 10894 10896 10899 10901 10903 10904 10906 10908 10910 10911 10912 10913 10914 10916 10918 10919 10920 10921 10923 10923 10923 10924
10677 10680 10682 10685 10689 10693 10698 10702 10706 10710 10713 10716 10720 10725 10731 10737 10743 10748 10754 10762 10769 10775 10781 10786 10791 10796 10801 10806 10810 10813 10816 10820 10823 10827 10831 10835 10837 10840 10843 10844 10847 10851 10855 10857 10858 10859 10861 10863 10864 10866 10869 10870 10871 10872 10874 10876 10878 10879 10881 10882 10884 10886 10888 10889 10891 10894 10896 10898 10899 10901 10903 10905 10907 10908 10909 10910 10912 10914 10915 10916 10917 10918 10919 10919 10920
10671 10674 10677 10680 10683 10687 10692 10697 10701 10704 10707 10710 10714 10720 10725 10730 10734 10739 10746 10753 10762 10770 10776 10781 10785 10789 10794 10799 10803 10807 10810 10813 10817 10821 10825 10829 10832 10836 10839 10840 10843 10847 10851 10853 10854 10855 10857 10859 10860 10862 10864 10865 10867 10869 10870 10873 10874 10876 10878 10879 10881 10882 10883 10885 10888 10890 10891 10893 10894 10896 10899 10901 10902 10903 10904 10905 10907 10909 10911 10911 10912 10913 10914 10914 10915
10665 10669 10672 10675 10678 10683 10687 10692 10696 10699 10702 10706 10710 10716 10721 10724 10728 10733 10740 10748 10757 10765 10769 10773 10777 10781 10786 10791 10796 10799 10803 10807 10810 10815 10820 10824 10828 10831 10834 10836 10839 10844 10848 10849 10850 10851 10853 10854 10855 10857 10860 10861 10863 10865 10867 10869 10871 10872 10874 10875 10877 10879 10881 10882 10884 10885 10886 10888 10889 10891 10893 10895 10896 10898 10899 10901 10902 10904 10906 10906 10906 10907 10909 10909 10909
10659 10664 10667 10670 10675 10679 10683 10688 10691 10694 10698 10702 10707 10712 10715 10718 10723 10728 10736 10745 10752 10756 10760 10765 10770 10774 10778 10783 10788 10792 10796 10800 10805 10810 10815 10820 10823 10826 10829 10832 10835 10839 10842 10844 10846 10847 10847 10849 10850 10852 10855 10857 10859 10861 10863 10865 10866 10868 10870 10871 10873 10876 10877 10878 10879 10880 10881 10883 10885 10886 10888 10889 10891 10892 10894 10895 10897 10899 10900 10901 10901 10901 10903 10903 10904
10655 10659 10663 10667 10671 10674 10679 10683 10686 10690 10694 10698 10703 10707 10709 10712 10716 10722 10731 10739 10743 10747 10752 10757 10762 10766 10770 10775 10780 10785 10790 10795 10800 10805 10809 10814 10817 10821 10825 10828 10830 10833 10835 10838 10841 10841 10842 10844 10845 10847 10850 10852 10854 10857 10859 10860 10862 10864 10865 10866 10869 10871 10873 10873 10874 10875 10877 10878 10879 10881 10882 10883 10885 10886 10887 10889 10890 10892 10894 10895 10895 10895 10896 10897 10898
10650 10655 10658 10663 10667 10671 10675 10678 10682 10686 10690 10693 10698 10701 10703 10707 10712 10718 10725 10731 10736 10742 10747 10750 10755 10759 10763 10768 10774 10779 10784 10789 10794 10798 10802 10807 10811 10815 10820 10823 10825 10827 10830 10833 10835 10836 10837 10839 10841 10842 10845 10847 10850 10853 10854 10855 10856 10858 10860 10861 10863 10866 10867 10868 10869 10870 10871 10872 10873 10875 10876 10877 10878 10880 10881 10883 10884 10886 10887 10888 10889 10889 10889 10890 10891
10646 10651 10655 10659 10663 10668 10671 10674 10678 10682 10685 10689 10693 10696 10698 10702 10707 10713 10719 10724 10730 10736 10740 10744 10749 10754 10758 10764 10769 10773 10778 10783 10787 10791 10796 10802 10806 10809 10813 10816 10818 10822 10825 10827 10829 10830 10832 10834 10835 10837 10840 10842 10845 10848 10849 10850 10851 10853 10855 10857 10858 10860 10861 10862 10863 10864 10865 10866 10868 10869 10870 10871 10871 10873 10875 10877 10878 10879 10880 10881 10882 10883 10883 10884 10885
10642 10647 10651 10656 10660 10664 10668 10671 10674 10677 10680 10684 10688 10691 10693 10697 10702 10708 10713 10717 10722 10727 10732 10737 10743 10748 10753 10758 10762 10766 10771 10776 10781 10785 10791 10795 10798 10802 10806 10809 10813 10817 10819 10821 10823 10824 10826 10827 10829 10832 10834 10837 10840 10843 10844 10845 10846 10847 10850 10851 10852 10853 10854 10854 10856 10857 10859 10860 10862 10863 10865 10865 10866 10867 10870 10871 10872 10872 10874 10874 10875 10876 10877 10878 10878
10637 10643 10647 10652 10657 10661 10664 10667 10670 10672 10675 10679 10682 10686 10689 10692 10697 10703 10706 10710 10716 10722 10727 10732 10737 10741 10746 10751 10755 10760 10764 10769 10774 10780 10786 10788 10790 10796 10801 10804 10807 10811 10813 10815 10817 10818 10819 10821 10823 10826 10829 10832 10835 10837 10838 10840 10841 10842 10844 10845 10844 10845 10846 10847 10848 10850 10852 10854 10856 10858 10860 10860 10860 10862 10864 10866 10866 10867 10869 10869 10870 10871 10872 10873 10873
10633 10638 10643 10648 10652 10656 10659 10663 10665 10668 10670 10674 10677 10682 10685 10689 10694 10698 10700 10704 10712 10718 10722 10725 10729 10735 10740 10744 10749 10752 10757 10763 10771 10776 10780 10781 10784 10790 10795 10797 10801 10804 10806 10808 10810 10812 10813 10815 10817 10820 10824 10827 10829 10831 10832 10833 10834 10836 10838 10838 10837 10838 10840 10841 10841 10843 10845 10847 10849 10852 10854 10855 10856 10857 10859 10860 10861 10863 10864 10864 10865 10866 10867 10868 10868